QFA14D EGGD-EGJJ

Flight info

Callsign QFA14D
Flight time 0h 53m
Altitude 9000
Route EXMOR N40 KLAKI L149 BIGNO
Aircraft DH8D/M-SDE2E3FGRY/H

Departure

Time 2026-05-04 18:06
Airport Bristol Airport (EGGD)

Arrival

Time 2026-05-04 19:00
Airport Jersey Airport (EGJJ)
Time Latitude Longitude Altitude Speed Heading
2026-05-04 17:41 51.38543 -2.70494 598 ft 0 kts 356°
2026-05-04 17:51 51.38544 -2.70494 598 ft 0 kts 356°
2026-05-04 17:51 51.38536 -2.70494 598 ft 2 kts 356°
2026-05-04 17:52 51.38526 -2.70493 598 ft 1 kts 355°
2026-05-04 17:52 51.38512 -2.70487 598 ft 2 kts 334°
2026-05-04 17:52 51.38500 -2.70474 598 ft 2 kts 314°
2026-05-04 17:52 51.38490 -2.70455 598 ft 2 kts 295°
2026-05-04 17:53 51.38486 -2.70432 598 ft 2 kts 276°
2026-05-04 17:53 51.38486 -2.70418 598 ft 0 kts 268°
2026-05-04 17:53 51.38486 -2.70419 598 ft 0 kts 268°
2026-05-04 17:57 51.38485 -2.70478 598 ft 11 kts 267°
2026-05-04 17:57 51.38479 -2.70656 598 ft 20 kts 267°
2026-05-04 17:58 51.38473 -2.70920 598 ft 28 kts 268°
2026-05-04 17:58 51.38467 -2.71197 598 ft 20 kts 269°
2026-05-04 17:58 51.38463 -2.71381 598 ft 12 kts 265°
2026-05-04 17:58 51.38457 -2.71490 598 ft 10 kts 265°
2026-05-04 17:59 51.38449 -2.71658 598 ft 19 kts 264°
2026-05-04 17:59 51.38434 -2.71914 598 ft 26 kts 266°
2026-05-04 17:59 51.38406 -2.72584 598 ft 30 kts 267°
2026-05-04 18:00 51.38393 -2.72880 598 ft 22 kts 265°
2026-05-04 18:00 51.38384 -2.73080 598 ft 13 kts 268°
2026-05-04 18:00 51.38385 -2.73194 598 ft 0 kts 270°
2026-05-04 18:04 51.38332 -2.73329 599 ft 24 kts 203°
2026-05-04 18:05 51.38221 -2.73255 598 ft 14 kts 92°
2026-05-04 18:05 51.38240 -2.72655 599 ft 101 kts 86°
2026-05-04 18:05 51.38291 -2.71145 678 ft 160 kts 86°
2026-05-04 18:05 51.38313 -2.69264 991 ft 178 kts 88°
2026-05-04 18:06 51.38311 -2.65177 1695 ft 186 kts 88°
2026-05-04 18:06 51.38304 -2.63143 2034 ft 182 kts 88°
2026-05-04 18:06 51.38298 -2.61134 2320 ft 178 kts 88°
2026-05-04 18:07 51.38291 -2.59177 2581 ft 176 kts 87°
2026-05-04 18:07 51.38387 -2.57222 2840 ft 180 kts 81°
2026-05-04 18:07 51.38298 -2.55236 3238 ft 181 kts 103°
2026-05-04 18:07 51.37713 -2.53444 3640 ft 183 kts 126°
2026-05-04 18:08 51.36740 -2.52135 4020 ft 188 kts 148°
2026-05-04 18:08 51.35492 -2.51466 4423 ft 193 kts 170°
2026-05-04 18:08 51.34157 -2.51574 4826 ft 197 kts 192°
2026-05-04 18:08 51.32923 -2.52478 5248 ft 198 kts 216°
2026-05-04 18:09 51.31771 -2.56247 6089 ft 195 kts 264°
2026-05-04 18:09 51.31457 -2.60455 6858 ft 187 kts 264°
2026-05-04 18:10 51.31324 -2.62499 7204 ft 186 kts 265°
2026-05-04 18:10 51.31193 -2.64547 7543 ft 185 kts 263°
2026-05-04 18:10 51.30909 -2.66552 7844 ft 185 kts 254°
2026-05-04 18:10 51.30546 -2.68516 8136 ft 186 kts 254°
2026-05-04 18:11 51.30176 -2.70505 8439 ft 187 kts 254°
2026-05-04 18:11 51.29806 -2.72500 8725 ft 188 kts 254°
2026-05-04 18:11 51.29427 -2.74554 8886 ft 201 kts 254°
2026-05-04 18:11 51.29018 -2.76780 8960 ft 220 kts 254°
2026-05-04 18:12 51.28567 -2.79217 9007 ft 238 kts 254°
2026-05-04 18:12 51.28076 -2.81861 9022 ft 255 kts 253°
2026-05-04 18:12 51.27562 -2.84626 9003 ft 267 kts 253°
2026-05-04 18:12 51.27021 -2.87533 8999 ft 277 kts 253°
2026-05-04 18:13 51.26464 -2.90521 9000 ft 285 kts 253°
2026-05-04 18:13 51.25891 -2.93591 8995 ft 291 kts 253°
2026-05-04 18:13 51.24717 -2.99869 8988 ft 299 kts 253°
2026-05-04 18:14 51.24128 -3.02998 8890 ft 294 kts 253°
2026-05-04 18:14 51.23550 -3.06051 8942 ft 282 kts 253°
2026-05-04 18:14 51.22999 -3.08960 8953 ft 274 kts 253°
2026-05-04 18:15 51.21917 -3.14679 8963 ft 263 kts 253°
2026-05-04 18:15 51.20878 -3.20164 8966 ft 256 kts 253°
2026-05-04 18:15 51.20364 -3.22874 8963 ft 254 kts 253°
2026-05-04 18:16 51.19854 -3.25562 8966 ft 251 kts 253°
2026-05-04 18:16 51.19355 -3.28191 8967 ft 250 kts 253°
2026-05-04 18:16 51.18850 -3.30848 8953 ft 248 kts 253°
2026-05-04 18:17 51.16845 -3.34894 8961 ft 240 kts 195°
2026-05-04 18:17 51.15216 -3.34960 8981 ft 236 kts 172°
2026-05-04 18:17 51.11951 -3.34175 8965 ft 237 kts 170°
2026-05-04 18:18 51.10312 -3.33742 8974 ft 241 kts 169°
2026-05-04 18:18 51.08660 -3.33296 8965 ft 245 kts 169°
2026-05-04 18:18 51.06943 -3.32825 8964 ft 249 kts 169°
2026-05-04 18:18 51.05246 -3.32354 8958 ft 252 kts 169°
2026-05-04 18:19 51.01766 -3.31378 8962 ft 255 kts 169°
2026-05-04 18:19 51.00008 -3.30882 8962 ft 257 kts 169°
2026-05-04 18:19 50.98263 -3.30389 8956 ft 258 kts 169°
2026-05-04 18:20 50.96498 -3.29889 8957 ft 259 kts 169°
2026-05-04 18:20 50.94711 -3.29383 8953 ft 259 kts 169°
2026-05-04 18:20 50.92943 -3.28881 8953 ft 260 kts 169°
2026-05-04 18:20 50.91160 -3.28376 8956 ft 260 kts 169°
2026-05-04 18:21 50.89375 -3.27869 8946 ft 260 kts 169°
2026-05-04 18:21 50.87590 -3.27363 8954 ft 260 kts 169°
2026-05-04 18:21 50.85831 -3.26865 8972 ft 260 kts 169°
2026-05-04 18:21 50.84043 -3.26358 8973 ft 261 kts 169°
2026-05-04 18:22 50.82264 -3.25855 8949 ft 261 kts 169°
2026-05-04 18:22 50.80470 -3.25348 8959 ft 261 kts 169°
2026-05-04 18:22 50.78698 -3.24847 8953 ft 261 kts 169°
2026-05-04 18:22 50.76900 -3.24339 8954 ft 261 kts 169°
2026-05-04 18:23 50.75107 -3.23833 8963 ft 261 kts 169°
2026-05-04 18:23 50.73318 -3.23329 8971 ft 261 kts 169°
2026-05-04 18:23 50.71550 -3.22831 8972 ft 262 kts 169°
2026-05-04 18:23 50.69740 -3.22321 8973 ft 262 kts 169°
2026-05-04 18:24 50.67954 -3.21818 8975 ft 263 kts 169°
2026-05-04 18:24 50.66148 -3.21311 8974 ft 263 kts 169°
2026-05-04 18:24 50.64351 -3.20805 8968 ft 260 kts 169°
2026-05-04 18:24 50.62578 -3.20306 8971 ft 256 kts 169°
2026-05-04 18:25 50.60836 -3.19816 8963 ft 253 kts 169°
2026-05-04 18:25 50.59124 -3.19336 8957 ft 246 kts 169°
2026-05-04 18:25 50.57465 -3.18876 8962 ft 238 kts 169°
2026-05-04 18:25 50.55874 -3.18427 8966 ft 231 kts 169°
2026-05-04 18:26 50.54322 -3.17989 8956 ft 224 kts 169°
2026-05-04 18:26 50.52806 -3.17563 8968 ft 217 kts 169°
2026-05-04 18:26 50.51337 -3.17150 8965 ft 211 kts 169°
2026-05-04 18:26 50.49915 -3.16752 8966 ft 205 kts 168°
2026-05-04 18:27 50.48531 -3.16366 8960 ft 199 kts 168°
2026-05-04 18:27 50.47184 -3.15990 8954 ft 193 kts 168°
2026-05-04 18:27 50.45880 -3.15628 8961 ft 194 kts 169°
2026-05-04 18:27 50.44517 -3.15254 8965 ft 204 kts 168°
2026-05-04 18:28 50.43087 -3.14859 8972 ft 214 kts 169°
2026-05-04 18:28 50.41591 -3.14445 8975 ft 223 kts 169°
2026-05-04 18:28 50.40033 -3.14013 8972 ft 232 kts 169°
2026-05-04 18:28 50.38417 -3.13564 8968 ft 240 kts 169°
2026-05-04 18:29 50.36785 -3.12944 8961 ft 244 kts 158°
2026-05-04 18:29 50.35244 -3.11753 8968 ft 248 kts 150°
2026-05-04 18:29 50.33714 -3.10457 8968 ft 252 kts 150°
2026-05-04 18:29 50.32160 -3.09142 8966 ft 255 kts 150°
2026-05-04 18:30 50.28994 -3.06480 8962 ft 260 kts 151°
2026-05-04 18:30 50.27417 -3.05162 8962 ft 261 kts 150°
2026-05-04 18:30 50.25800 -3.03814 8961 ft 260 kts 151°
2026-05-04 18:31 50.24209 -3.02489 8960 ft 260 kts 150°
2026-05-04 18:31 50.22615 -3.01166 8938 ft 261 kts 151°
2026-05-04 18:31 50.21006 -2.99831 8789 ft 266 kts 151°
2026-05-04 18:31 50.19378 -2.98482 8766 ft 264 kts 151°
2026-05-04 18:32 50.17762 -2.97146 8761 ft 263 kts 151°
2026-05-04 18:32 50.16145 -2.95810 8763 ft 261 kts 151°
2026-05-04 18:32 50.14545 -2.94489 8761 ft 260 kts 151°
2026-05-04 18:32 50.12952 -2.93176 8758 ft 259 kts 151°
2026-05-04 18:33 50.11343 -2.91850 8744 ft 259 kts 151°
2026-05-04 18:33 50.09739 -2.90529 8582 ft 265 kts 151°
2026-05-04 18:33 50.08098 -2.89180 8393 ft 269 kts 151°
2026-05-04 18:33 50.06437 -2.87815 8197 ft 272 kts 151°
2026-05-04 18:34 50.04752 -2.86431 7999 ft 274 kts 150°
2026-05-04 18:34 50.03092 -2.85068 7797 ft 269 kts 150°
2026-05-04 18:34 50.01473 -2.83737 7584 ft 259 kts 150°
2026-05-04 18:34 49.99885 -2.82509 7359 ft 248 kts 156°
2026-05-04 18:35 49.98262 -2.81753 7146 ft 239 kts 164°
2026-05-04 18:35 49.96679 -2.81134 6933 ft 231 kts 165°
2026-05-04 18:35 49.95152 -2.80539 6722 ft 224 kts 164°
2026-05-04 18:35 49.93663 -2.79958 6512 ft 218 kts 164°
2026-05-04 18:36 49.92203 -2.79387 6300 ft 212 kts 164°
2026-05-04 18:36 49.90805 -2.78838 6090 ft 207 kts 164°
2026-05-04 18:36 49.89427 -2.78296 5840 ft 203 kts 163°
2026-05-04 18:36 49.88057 -2.77757 5542 ft 203 kts 163°
2026-05-04 18:37 49.86697 -2.77220 5287 ft 199 kts 163°
2026-05-04 18:37 49.85384 -2.76704 5152 ft 189 kts 163°
2026-05-04 18:37 49.84145 -2.76216 5025 ft 179 kts 163°
2026-05-04 18:37 49.82978 -2.75756 4891 ft 168 kts 163°
2026-05-04 18:38 49.81885 -2.75326 4746 ft 157 kts 163°
2026-05-04 18:38 49.80833 -2.74915 4628 ft 159 kts 163°
2026-05-04 18:38 49.79703 -2.74481 4585 ft 173 kts 163°
2026-05-04 18:38 49.78492 -2.74009 4507 ft 189 kts 163°
2026-05-04 18:39 49.77156 -2.73484 4376 ft 207 kts 163°
2026-05-04 18:39 49.75695 -2.72910 4234 ft 225 kts 163°
2026-05-04 18:39 49.74144 -2.72300 4082 ft 236 kts 163°
2026-05-04 18:39 49.72511 -2.71658 3919 ft 244 kts 163°
2026-05-04 18:40 49.70857 -2.71008 3816 ft 247 kts 163°
2026-05-04 18:40 49.69194 -2.70356 3782 ft 246 kts 163°
2026-05-04 18:40 49.67557 -2.69715 3755 ft 245 kts 163°
2026-05-04 18:40 49.65898 -2.69065 3727 ft 244 kts 163°
2026-05-04 18:41 49.64264 -2.68425 3699 ft 244 kts 163°
2026-05-04 18:41 49.62620 -2.67781 3673 ft 244 kts 163°
2026-05-04 18:41 49.60976 -2.67139 3647 ft 243 kts 163°
2026-05-04 18:41 49.59339 -2.66499 3625 ft 246 kts 163°
2026-05-04 18:42 49.57668 -2.65847 3608 ft 250 kts 163°
2026-05-04 18:42 49.55971 -2.65186 3589 ft 253 kts 163°
2026-05-04 18:42 49.54257 -2.64518 3569 ft 255 kts 163°
2026-05-04 18:42 49.52513 -2.63839 3545 ft 257 kts 163°
2026-05-04 18:43 49.50770 -2.63160 3523 ft 259 kts 163°
2026-05-04 18:43 49.49032 -2.62484 3499 ft 260 kts 163°
2026-05-04 18:43 49.47265 -2.61797 3475 ft 261 kts 163°
2026-05-04 18:43 49.45504 -2.61113 3464 ft 262 kts 163°
2026-05-04 18:44 49.43744 -2.60394 3458 ft 262 kts 160°
2026-05-04 18:44 49.42623 -2.59716 3453 ft 253 kts 153°
2026-05-04 18:44 49.40554 -2.58239 3446 ft 239 kts 152°
2026-05-04 18:44 49.39085 -2.57186 3445 ft 230 kts 152°
2026-05-04 18:45 49.37661 -2.56166 3446 ft 223 kts 152°
2026-05-04 18:45 49.36258 -2.55164 3454 ft 222 kts 152°
2026-05-04 18:45 49.34852 -2.54164 3454 ft 223 kts 152°
2026-05-04 18:45 49.33444 -2.53165 3453 ft 223 kts 152°
2026-05-04 18:46 49.32060 -2.52184 3444 ft 216 kts 152°
2026-05-04 18:46 49.30725 -2.51238 3438 ft 203 kts 151°
2026-05-04 18:46 49.29488 -2.50364 3434 ft 190 kts 151°
2026-05-04 18:46 49.28328 -2.49545 3430 ft 176 kts 151°
2026-05-04 18:47 49.27268 -2.48797 3427 ft 164 kts 151°
2026-05-04 18:47 49.26255 -2.48086 3414 ft 157 kts 150°
2026-05-04 18:47 49.25258 -2.47385 3328 ft 158 kts 151°
2026-05-04 18:47 49.24226 -2.46657 3152 ft 168 kts 150°
2026-05-04 18:48 49.23153 -2.45897 2926 ft 172 kts 151°
2026-05-04 18:48 49.22036 -2.45107 2695 ft 182 kts 151°
2026-05-04 18:48 49.20860 -2.44280 2473 ft 193 kts 151°
2026-05-04 18:48 49.19691 -2.43293 2214 ft 187 kts 133°
2026-05-04 18:49 49.19228 -2.41658 2058 ft 163 kts 86°
2026-05-04 18:49 49.19302 -2.40019 1978 ft 141 kts 81°
2026-05-04 18:49 49.19381 -2.38636 1941 ft 126 kts 82°
2026-05-04 18:49 49.19454 -2.37321 1904 ft 121 kts 81°
2026-05-04 18:50 49.19525 -2.36038 1786 ft 124 kts 81°
2026-05-04 18:50 49.19597 -2.34727 1712 ft 121 kts 82°
2026-05-04 18:50 49.19667 -2.33447 1610 ft 122 kts 82°
2026-05-04 18:50 49.19630 -2.32121 1448 ft 132 kts 110°
2026-05-04 18:51 49.18917 -2.31169 1187 ft 150 kts 165°
2026-05-04 18:51 49.17857 -2.31176 1073 ft 154 kts 183°
2026-05-04 18:51 49.16769 -2.31270 1055 ft 162 kts 182°
2026-05-04 18:51 49.15589 -2.31362 1156 ft 180 kts 181°
2026-05-04 18:52 49.14267 -2.31474 1257 ft 199 kts 182°
2026-05-04 18:52 49.12874 -2.32086 1334 ft 219 kts 212°
2026-05-04 18:52 49.11850 -2.33854 1409 ft 234 kts 246°
2026-05-04 18:52 49.11561 -2.36311 1513 ft 240 kts 276°
2026-05-04 18:53 49.11798 -2.38881 1642 ft 247 kts 281°
2026-05-04 18:53 49.12066 -2.41502 1758 ft 254 kts 282°
2026-05-04 18:53 49.12338 -2.44152 1865 ft 255 kts 281°
2026-05-04 18:53 49.12596 -2.46760 1941 ft 240 kts 281°
2026-05-04 18:54 49.12958 -2.49148 2004 ft 224 kts 298°
2026-05-04 18:54 49.13933 -2.50844 2076 ft 207 kts 332°
2026-05-04 18:54 49.15255 -2.51342 2160 ft 194 kts
2026-05-04 18:54 49.16445 -2.50562 2245 ft 185 kts 43°
2026-05-04 18:55 49.17256 -2.49074 2345 ft 180 kts 52°
2026-05-04 18:55 49.18635 -2.45930 2443 ft 176 kts 72°
2026-05-04 18:55 49.18816 -2.44117 2486 ft 171 kts 84°
2026-05-04 18:56 49.18898 -2.42341 2470 ft 166 kts 83°
2026-05-04 18:56 49.19008 -2.40626 2452 ft 155 kts 81°
2026-05-04 18:56 49.19133 -2.39060 2444 ft 145 kts 80°
2026-05-04 18:56 49.19257 -2.37560 2442 ft 137 kts 80°
2026-05-04 18:57 49.19379 -2.36098 2322 ft 142 kts 79°
2026-05-04 18:57 49.19511 -2.34576 2136 ft 147 kts 79°
2026-05-04 18:57 49.19648 -2.32992 1932 ft 152 kts 80°
2026-05-04 18:57 49.19785 -2.31404 1713 ft 153 kts 80°
2026-05-04 18:58 49.19922 -2.29786 1499 ft 154 kts 81°
2026-05-04 18:58 49.20062 -2.28156 1280 ft 153 kts 80°
2026-05-04 18:58 49.20199 -2.26559 1069 ft 148 kts 80°
2026-05-04 18:58 49.20327 -2.25048 870 ft 141 kts 81°
2026-05-04 18:59 49.20461 -2.23582 705 ft 138 kts 80°
2026-05-04 18:59 49.20589 -2.22126 570 ft 138 kts 81°
2026-05-04 18:59 49.20706 -2.20660 339 ft 141 kts 81°
2026-05-04 18:59 49.20827 -2.19301 276 ft 106 kts 80°
2026-05-04 19:00 49.20883 -2.18664 274 ft 44 kts 82°
2026-05-04 19:00 49.20860 -2.18400 275 ft 19 kts 140°
2026-05-04 19:00 49.20746 -2.18439 274 ft 17 kts 232°
2026-05-04 19:00 49.20718 -2.18620 271 ft 17 kts 263°
2026-05-04 19:01 49.20710 -2.18789 271 ft 14 kts 264°
2026-05-04 19:01 49.20693 -2.18998 271 ft 26 kts 264°
2026-05-04 19:01 49.20682 -2.19206 274 ft 12 kts 272°
2026-05-04 19:01 49.20695 -2.19313 276 ft 12 kts 283°
2026-05-04 19:02 49.20701 -2.19483 276 ft 20 kts 260°
2026-05-04 19:02 49.20622 -2.19698 272 ft 26 kts 243°
2026-05-04 19:02 49.20600 -2.19879 270 ft 12 kts 259°
2026-05-04 19:02 49.20564 -2.19931 270 ft 4 kts 179°
2026-05-04 19:03 49.20506 -2.19921 270 ft 13 kts 174°
2026-05-04 19:03 49.20430 -2.19864 269 ft 14 kts 94°
2026-05-04 19:03 49.20457 -2.19787 271 ft 10 kts 331°
2026-05-04 19:03 49.20484 -2.19793 270 ft 0 kts